User: anonymous   Login
Location: Unspecified
(0.0000°N, 0.0000°E)
Time: 18:57:02
(UTC+00:00)
Language:

APRIZESAT 2 (LATINSAT D) - Orbit

View from above orbital plane
View from above orbital plane
View from above satellite
View from above satellite

Ground track
Ground track

The orbit data is extracted from the following two-line orbital elements,

1 28366U 04025A   17084.76244329 +.00000008 +00000-0 +17119-4 0  9994
2 28366 098.3404 001.3181 0106728 300.2596 058.8060 14.36594211667617
Epoch (UTC): 25 March 2017 18:17:55
Eccentricity: 0.0106728
inclination: 98.3404°
perigee height: 693 km
apogee height: 846 km
right ascension of ascending node: 1.3181°
argument of perigee: 300.2596°
revolutions per day: 14.36594211
mean anomaly at epoch: 58.8060°
orbit number at epoch: 66761

The dashed part of the orbit path shows where the satellite is in the earth's shadow,  

DLR